Regional Weather Roundup
Issued by NWS

Home | Current Version | Previous Version | Graphics & Text | Print | Product List | Glossary On
Versions: 1 2 3 4 5 6 7 8 9 10 11 12 13 14 15 16 17 18 19 20 21 22 23 24 25 26 27 28 29 30 31 32 33 34 35 36 37 38 39 40 41 42 43 44 45 46 47 48 49 50
000
ASUS43 KLOT 240803
RWRIL

ILLINOIS REGIONAL WEATHER ROUNDUP
NATIONAL WEATHER SERVICE CHICAGO/ROMEOVILLE IL
300 AM CDT TUE APR 24 2018

NOTE: "FAIR" INDICATES FEW OR NO CLOUDS BELOW 12,000 FEET WITH NO
SIGNIFICANT WEATHER AND/OR OBSTRUCTIONS TO VISIBILITY.

* THESE STATIONS ARE NOT UNDER NWS QUALITY CONTROL. THEY ALSO MAY NOT
  REPORT WEATHER SUCH AS PRECIPITATION OR FOG.

ILZ001-002-007-009-015-016-024-240900-
NORTHWEST ILLINOIS

CITY           SKY/WX    TMP DP  RH WIND       PRES   REMARKS
MOLINE         FAIR      53  38  56 E6        30.06S
STERLING*      FAIR      52  30  43 NE6       30.07S
SAVANNA*       FAIR      50  32  49 N3        30.08F
$$

ILZ003-004-008-010-011-017-018-240900-
NORTH CENTRAL ILLINOIS

CITY           SKY/WX    TMP DP  RH WIND       PRES   REMARKS
ROCKFORD       CLOUDY    51  26  37 N7        30.10S
FREEPORT*      MOCLDY    45  32  60 N3        30.10F
ROCHELLE*      CLOUDY    49  32  51 NE3       30.07S
DE KALB*       CLOUDY    50  31  47 N5        30.07S
PERU*          CLOUDY    54  34  47 E8        30.05F
$$

ILZ005-006-012>014-019>023-240900-
NORTHEAST ILLINOIS

CITY           SKY/WX    TMP DP  RH WIND       PRES   REMARKS
CHICAGO-OHARE  CLOUDY    49  34  56 N3        30.05F
CHICAGO-MIDWAY DRIZZLE   53  38  56 N5        30.06S
AURORA         CLOUDY    51  34  52 NE5       30.05F
LANSING*       LGT RAIN  45  44  96 CALM      30.07R
JOLIET*        CLOUDY    51  46  85 N5        30.06S
WAUKEGAN       CLOUDY    46  33  60 CALM      30.06F
DUPAGE AIRPORT CLOUDY    50  34  54 N7        30.05F
KANKAKEE*      CLOUDY    51  51  98 E8        30.05S
WHEELING       CLOUDY    49  32  52 CALM      30.07F
MORRIS*        CLOUDY    49  45  84 N5        30.04F
ROMEOVILLE*    LGT RAIN  49  46  87 NE3       30.06S
NORTHERLY ISL    N/A     45  33  63 N8          N/A
$$

LMZ740>746-240900-
SOUTHERN LAKE MICHIGAN

STATION/POSITION SKY/WX   TEMP    WIND        PRES    VSBY  WAVE
                          AIR SEA DIR/SP/G                  HT/PER
                          (F)     (DEG/KT/KT) (MB)    (MI)  (FT/S)
HARRISON CRIB              43     360/ 10/ 11   N/A
BURNHAM HARBOR             44     360/  6/ 10   N/A
CALUMET HARBOR             43     340/  7/ 10 1017.5F
BURNS HARBOR               42      CALM  /  3 1018.6
MICHIGAN CITY              49      50/  4/  5   N/A
ST. JOSEPH                 51 42  240/  4/  6 1018.7F         2/ 5
$$

ILZ025>027-034>036-040-047-049-050-058-095>099-240900-
WEST-CENTRAL ILLINOIS

CITY           SKY/WX    TMP DP  RH WIND       PRES   REMARKS
QUINCY         CLOUDY    55  52  89 NE6       30.02S
MACOMB*        CLOUDY    52  50  92 NE7       30.06S
JACKSONVILLE*  CLOUDY    54  53  95 N7        30.01S FOG
PITTSFIELD*    CLOUDY    56  55  95 NE7       30.03R FOG
$$

ILZ028>032-037-038-041>044-048-051>054-059>061-240900-
CENTRAL ILLINOIS

CITY           SKY/WX    TMP DP  RH WIND       PRES   REMARKS
PONTIAC        CLOUDY    49  49  99 NE9       30.05R FOG
BLOOMINGTON    FOG       51  50  96 NE12      30.03S VSB 1/4
DECATUR        LGT RAIN  53  53 100 NE9       29.99S FOG
PEORIA         CLOUDY    51  49  92 NE8       30.04S FOG
LACON*         CLOUDY    51  44  76 NE7       30.04S
LINCOLN*       CLOUDY    54  54 100 N7        30.01S FOG
SPRINGFIELD    LGT RAIN  56  55  97 N8        30.00F FOG
TAYLORVILLE    RAIN      54  54 100 NE8       29.99S
$$

ILZ033-039-045-046-055>057-062-063-240900-
EAST-CENTRAL ILLINOIS

CITY           SKY/WX    TMP DP  RH WIND       PRES   REMARKS
CHAMPAIGN      CLOUDY    53  52  96 NE12      29.99S
DANVILLE*      CLOUDY    51  51  98 NE7       29.98S
RANTOUL*       CLOUDY    54  54  99 NE10      30.01S
MATTOON        FAIR      50  50 100 NE5       29.96S
PARIS*         CLOUDY    52  51  96 NE7       29.99S
$$

ILZ079-100>102-240900-
SOUTHWEST ILLINOIS

CITY           SKY/WX    TMP DP  RH WIND       PRES   REMARKS
ALTON          CLOUDY    54  54 100 N3        29.98S FOG
BELLEVILLE     LGT RAIN  55  54  97 N7        29.95F
CAHOKIA*       CLOUDY    56  53  90 N8        29.97S
SPARTA*        CLOUDY    55  55 100 N5        29.96S FOG
$$

ILZ064>066-069>071-074>076-080>082-084>086-088>090-092>094-240900-
SOUTH-CENTRAL ILLINOIS

CITY           SKY/WX    TMP DP  RH WIND       PRES   REMARKS
CARBONDALE     CLOUDY    57  55  93 N5        29.93S
CAIRO*         CLOUDY    55  55  99 N7        29.92S
EFFINGHAM*     CLOUDY    54  54 100 CALM      29.97S
MARION         CLOUDY   N/A N/A N/A CALM      29.94S HAZE
MT. VERNON     MOCLDY    54  54 100 CALM      29.94F FOG
CENTRALIA*     CLOUDY    56  56  98 CALM      29.94S
SALEM*         CLOUDY    56  55  94 N3        29.95S FOG
METROPOLIS*    CLOUDY    54  54  99 CALM      29.92S
$$

ILZ067-068-072-073-078-083-087-091-240900-
SOUTHEAST ILLINOIS

CITY           SKY/WX    TMP DP  RH WIND       PRES   REMARKS
LAWRENCEVILLE  CLOUDY    54  51  90 MISG      29.95S
FLORA*         CLOUDY    55  54  95 N6        29.95S
FAIRFIELD*     MOCLDY    54  54 100 N5        29.92F FOG
HARRISBURG*    CLOUDY    55  55 100 CALM      29.93S
ROBINSON*      CLOUDY    50  50  99 NE6       29.96F
CARMI*         CLOUDY    55  55  99 E3        29.92S
$$

ABBREVIATIONS USED IN REMARKS
   TC - TEMPERATURE IN CELSIUS
  WCI - WIND CHILL INDEX
   HX - HEAT INDEX
  VSB - VISIBILITY
$$




USA.gov is the U.S. government's official web portal to all federal, state and local government web resources and services.